Tracking 28920 objects as of 27-May-2024
HD Live streaming from Space Station
objects crossing your sky now

INS-2TD

Track INS-2TD now!
10-day predictions
INS-2TD is classified as:


NORAD ID: 51658
Int'l Code: 2022-013C
Perigee: 439.6 km
Apogee: 448.0 km
Inclination: 97.5 °
Period: 93.3 minutes
Semi major axis: 6814 km
RCS: Unknown
Launch date: February 14, 2022
Source: India (IND)
Launch site: SRIHARIKOTA (SRI)

Uplink (MHz):
Downlink (MHz): 435.080
Beacon (MHz):
Mode: 1200bps FSK
Call sign: INDUSR
Status: Active

Your satellite tracking list
Your tracking list is empty




NASA's NSSDC Master Catalog

Two Line Element Set (TLE):
1 51658U 22013C   24147.57264805  .00040402  00000-0  90810-3 0  9999
2 51658  97.5196 170.1102 0006158 199.4136 160.6877 15.43214730126665
Source of the keplerian elements: AFSPC